Topeka, KS

10:56 AM CST on November 21, 2019 (GMT -0600)
Billard Municipal

Weather History for KTOP - September, 2019

Change the Weather History Date:

Saturday, September 7, 2019

  Actual Average Record
Temperature  
Mean Temperature 74 °F 72 °F  
Max Temperature 87 °F 84 °F 106 °F (1947)
Min Temperature 60 °F 60 °F 42 °F (1956)
Degree Days  
Heating Degree Days 0 1  
Month to date heating degree days 0 2  
Since 1 July heating degree days 0 4  
Cooling Degree Days 9 8  
Month to date cooling degree days 86 60  
Year to date cooling degree days 1332 1288  
Growing Degree Days 24 (Base 50)    
Moisture  
Dew Point 65 °F    
Average Humidity 72    
Maximum Humidity 93    
Minimum Humidity 51    
Precipitation  
Precipitation 0.02 in 0.12 in 3.80 in (1909)
Month to date precipitation 0.02 0.84  
Year to date precipitation 40.91 27.41  
Snow  
Snow 0.00 in 0.00 in T in (1914)
Month to date snowfall 0.0 0.0  
Year to date snowfall 18.5 11.3  
Since 1 July snowfall T 0.0  
Snow Depth 0.00 in    
Sea Level Pressure  
Sea Level Pressure 29.99 in    
Wind  
Wind Speed 7 mph (ESE)    
Max Wind Speed 17 mph    
Max Gust Speed 22 mph    
Visibility 9 miles    
Events Rain , Thunderstorm    
T = Trace of Precipitation, MM = Missing Value Source: NWS Daily Summary

Daily Weather History Graph

Daily Weather History Graph

Search for Another Location

Airport or City:

Astronomy

Sep. 07, 2019 Rise Set
Actual Time 6:56 AM CDT 7:43 PM CDT
Civil Twilight 6:29 AM CDT 8:10 PM CDT
Nautical Twilight 5:57 AM CDT 8:42 PM CDT
Astronomical Twilight 5:24 AM CDT 9:15 PM CDT
Moon 3:58 PM CDT (9/7) 12:51 AM CDT (9/7)
Length of Visible Light 13h 41m
Length of Day
12h 47m
Waxing Gibbous, 66% of the Moon is Illuminated
Sep 7
Waxing Gibbous
Sep 13
Full
Sep 21
Last Quarter
Sep 28
New
Oct 5
First Quarter

Hourly Weather History & Observations

Time (CDT) Temp. Heat Index Dew Point Humidity Pressure Visibility Wind Dir Wind Speed Gust Speed Precip Events Conditions
12:53 AM 64.9 °F - 62.1 °F 90% 30.07 in 10.0 mi Calm Calm - N/A   Clear
1:04 AM 64.0 °F - 62.1 °F 93% 30.09 in 1.5 mi Calm Calm - N/A   Clear
1:13 AM 64.9 °F - 62.1 °F 90% 30.09 in 3.0 mi Calm Calm - N/A   Clear
1:25 AM 64.0 °F - 62.1 °F 93% 30.09 in 1.5 mi Calm Calm - N/A   Clear
1:34 AM 64.0 °F - 62.1 °F 93% 30.09 in 0.8 mi Calm Calm - N/A   Clear
1:39 AM 64.9 °F - 63.0 °F 93% 30.09 in 2.0 mi North 3.5 mph - N/A   Clear
1:46 AM 64.9 °F - 63.0 °F 93% 30.09 in 7.0 mi North 3.5 mph - N/A   Clear
1:53 AM 64.0 °F - 63.0 °F 96% 30.07 in 10.0 mi Calm Calm - N/A   Clear
2:53 AM 64.9 °F - 61.0 °F 87% 30.06 in 10.0 mi Calm Calm - N/A   Clear
3:53 AM 62.1 °F - 59.0 °F 90% 30.06 in 10.0 mi Calm Calm - N/A   Clear
4:53 AM 64.0 °F - 60.1 °F 87% 30.06 in 10.0 mi Calm Calm - N/A   Clear
5:53 AM 63.0 °F - 60.1 °F 90% 30.06 in 10.0 mi Calm Calm - N/A   Clear
6:53 AM 62.1 °F - 59.0 °F 90% 30.07 in 10.0 mi Calm Calm - N/A   Clear
7:53 AM 64.9 °F - 61.0 °F 87% 30.08 in 10.0 mi Calm Calm - N/A   Clear
8:53 AM 69.1 °F - 63.0 °F 81% 30.07 in 10.0 mi East 8.1 mph - N/A   Clear
9:53 AM 73.0 °F - 62.1 °F 68% 30.05 in 10.0 mi SE 10.4 mph - N/A   Clear
10:53 AM 77.0 °F - 63.0 °F 62% 30.03 in 10.0 mi SE 12.7 mph - N/A   Clear
11:53 AM 80.1 °F 81.9 °F 64.9 °F 60% 30.00 in 10.0 mi SE 11.5 mph - N/A   Clear
12:53 PM 82.9 °F 85.0 °F 66.0 °F 56% 29.97 in 10.0 mi ESE 11.5 mph - N/A   Clear
1:53 PM 84.0 °F 85.8 °F 64.9 °F 53% 29.94 in 10.0 mi ESE 12.7 mph - N/A   Clear
2:53 PM 84.0 °F 86.3 °F 66.0 °F 55% 29.91 in 10.0 mi ESE 12.7 mph - N/A   Clear
3:53 PM 87.1 °F 90.6 °F 68.0 °F 53% 29.89 in 10.0 mi ESE 15.0 mph 21.9 mph N/A   Clear
4:53 PM 87.1 °F 92.0 °F 70.0 °F 57% 29.88 in 10.0 mi SSE 13.8 mph 18.4 mph N/A   Clear
5:53 PM 86.0 °F 91.5 °F 71.1 °F 61% 29.86 in 10.0 mi ESE 11.5 mph - N/A   Clear
6:53 PM 82.9 °F 88.0 °F 72.0 °F 69% 29.86 in 10.0 mi East 10.4 mph - N/A   Clear
7:53 PM 80.1 °F 83.8 °F 72.0 °F 76% 29.86 in 10.0 mi East 9.2 mph - N/A   Clear
8:53 PM 79.0 °F - 72.0 °F 79% 29.85 in 10.0 mi East 9.2 mph - N/A   Clear
9:53 PM 78.1 °F - 71.1 °F 79% 29.83 in 10.0 mi ESE 13.8 mph - N/A   Clear
10:50 PM 78.8 °F - 71.6 °F 78% 29.89 in 10.0 mi Variable 4.6 mph - N/A Thunderstorm Mostly Cloudy
10:53 PM 78.1 °F - 72.0 °F 81% 29.87 in 10.0 mi WSW 5.8 mph - N/A Thunderstorm Mostly Cloudy
11:49 PM 75.2 °F - 73.4 °F 94% 29.89 in 9.0 mi East 3.5 mph - 0.01 in Rain Light Rain
11:53 PM 75.9 °F - 73.0 °F 91% 29.86 in 9.0 mi East 3.5 mph - 0.01 in Rain Light Rain